QPF
0.00 0.00 0.00 0.00 0.00 0.00 0.00 0.00 0.00 0.00 0.00 0.00 0.00 0.00 0.00 0.00 0.00 0.00 0.00 0.00 0.00 0.00 0.00 0.00 0.00 0.00 0.00 0.00 0.00 0.00 0.00 0.00 0.00 0.01 0.01 0.01 0.01 0.02 0.02 0.02 0.03 0.05 0.06 0.05
0.00 0.00 0.00 0.00 0.00 0.00 0.00 0.00 0.00 0.00 0.00 0.00 0.00 0.00 0.00 0.00 0.00 0.00 0.00 0.00 0.00 0.00 0.00 0.00 0.00 0.00 0.00 0.00 0.00 0.00 0.00 0.00 0.00 0.01 0.01 0.01 0.01 0.02 0.02 0.02 0.02 0.03 0.04 0.04
0.00 0.00 0.00 0.00 0.00 0.00 0.00 0.00 0.00 0.00 0.00 0.00 0.00 0.00 0.00 0.00 0.00 0.00 0.00 0.00 0.00 0.00 0.00 0.00 0.00 0.00 0.00 0.01 0.01 0.00 0.01 0.00 0.00 0.01 0.01 0.00 0.01 0.01 0.01 0.02 0.02 0.02 0.03 0.03
0.00 0.00 0.00 0.00 0.00 0.00 0.00 0.00 0.00 0.00 0.00 0.00 0.00 0.00 0.00 0.00 0.00 0.01 0.00 0.00 0.00 0.00 0.00 0.01 0.00 0.00 0.00 0.01 0.01 0.01 0.01 0.01 0.01 0.01 0.01 0.01 0.02 0.02 0.01 0.02 0.02 0.02 0.02 0.02
0.00 0.00 0.00 0.00 0.00 0.00 0.00 0.00 0.00 0.00 0.00 0.00 0.00 0.00 0.00 0.00 0.00 0.00 0.00 0.00 0.00 0.00 0.01 0.01 0.00 0.01 0.01 0.01 0.01 0.01 0.01 0.02 0.02 0.03 0.02 0.03 0.05 0.03 0.02 0.02 0.02 0.02 0.02 0.02
0.00 0.00 0.00 0.00 0.00 0.00 0.00 0.00 0.00 0.00 0.00 0.00 0.00 0.00 0.00 0.00 0.00 0.00 0.00 0.00 0.00 0.00 0.01 0.01 0.01 0.01 0.01 0.01 0.02 0.03 0.03 0.03 0.04 0.05 0.07 0.07 0.06 0.04 0.03 0.02 0.02 0.02 0.02 0.02
0.00 0.00 0.00 0.00 0.00 0.00 0.00 0.00 0.00 0.00 0.00 0.00 0.00 0.00 0.00 0.00 0.00 0.00 0.00 0.00 0.01 0.01 0.01 0.01 0.02 0.02 0.02 0.03 0.05 0.06 0.05 0.04 0.06 0.08 0.09 0.09 0.08 0.06 0.04 0.02 0.01 0.02 0.02 0.02
0.00 0.00 0.00 0.00 0.00 0.00 0.00 0.00 0.00 0.00 0.00 0.00 0.00 0.00 0.00 0.00 0.00 0.00 0.01 0.01 0.01 0.01 0.02 0.02 0.04 0.05 0.07 0.07 0.07 0.07 0.08 0.09 0.10 0.10 0.10 0.08 0.05 0.03 0.02 0.02 0.02 0.02 0.02 0.02
0.00 0.00 0.00 0.00 0.00 0.00 0.01 0.01 0.00 0.00 0.00 0.00 0.00 0.00 0.00 0.00 0.00 0.01 0.01 0.01 0.01 0.01 0.03 0.04 0.05 0.06 0.07 0.09 0.10 0.09 0.08 0.08 0.10 0.09 0.07 0.05 0.04 0.03 0.03 0.03 0.03 0.03 0.03 0.03
0.01 0.00 0.01 0.01 0.01 0.01 0.01 0.01 0.01 0.01 0.00 0.01 0.01 0.01 0.01 0.01 0.01 0.01 0.01 0.01 0.01 0.02 0.03 0.05 0.05 0.05 0.05 0.07 0.08 0.09 0.09 0.10 0.09 0.08 0.07 0.06 0.04 0.04 0.03 0.03 0.04 0.04 0.04 0.04
0.01 0.01 0.01 0.01 0.01 0.02 0.01 0.02 0.02 0.02 0.01 0.01 0.01 0.01 0.01 0.01 0.01 0.01 0.01 0.02 0.02 0.03 0.04 0.05 0.06 0.05 0.06 0.06 0.05 0.05 0.06 0.06 0.05 0.04 0.04 0.04 0.04 0.05 0.04 0.04 0.04 0.04 0.03 0.02
0.02 0.01 0.01 0.02 0.02 0.01 0.01 0.01 0.01 0.02 0.01 0.02 0.02 0.01 0.01 0.02 0.02 0.02 0.02 0.02 0.03 0.03 0.04 0.06 0.07 0.07 0.07 0.08 0.08 0.08 0.07 0.06 0.06 0.05 0.04 0.04 0.04 0.04 0.04 0.04 0.04 0.04 0.04 0.04
0.01 0.01 0.02 0.02 0.02 0.01 0.01 0.01 0.01 0.01 0.02 0.02 0.02 0.02 0.03 0.03 0.03 0.02 0.02 0.03 0.03 0.02 0.02 0.03 0.05 0.05 0.04 0.04 0.04 0.04 0.05 0.05 0.06 0.06 0.05 0.05 0.04 0.04 0.04 0.05 0.04 0.04 0.04 0.05
0.01 0.02 0.02 0.02 0.01 0.01 0.01 0.01 0.01 0.01 0.01 0.02 0.02 0.01 0.02 0.02 0.02 0.01 0.01 0.01 0.01 0.01 0.02 0.03 0.04 0.03 0.03 0.02 0.02 0.02 0.02 0.02 0.03 0.03 0.04 0.05 0.05 0.05 0.05 0.05 0.03 0.02 0.03 0.03
0.01 0.01 0.01 0.01 0.01 0.01 0.01 0.01 0.01 0.01 0.01 0.01 0.02 0.02 0.02 0.01 0.01 0.01 0.01 0.01 0.01 0.01 0.01 0.02 0.03 0.03 0.02 0.02 0.02 0.02 0.02 0.02 0.03 0.04 0.05 0.06 0.06 0.05 0.04 0.03 0.03 0.02 0.02 0.03
0.02 0.01 0.01 0.01 0.01 0.01 0.01 0.01 0.01 0.01 0.01 0.01 0.02 0.02 0.02 0.02 0.01 0.01 0.01 0.01 0.01 0.01 0.01 0.01 0.01 0.02 0.01 0.01 0.01 0.02 0.02 0.02 0.03 0.04 0.04 0.04 0.04 0.04 0.03 0.02 0.02 0.02 0.02 0.03
0.02 0.02 0.02 0.01 0.01 0.01 0.01 0.01 0.01 0.01 0.01 0.02 0.03 0.04 0.04 0.03 0.03 0.03 0.03 0.02 0.02 0.01 0.01 0.01 0.01 0.01 0.01 0.01 0.01 0.01 0.02 0.02 0.03 0.03 0.03 0.03 0.02 0.02 0.02 0.01 0.01 0.01 0.01 0.01
0.01 0.02 0.02 0.02 0.02 0.01 0.01 0.01 0.00 0.00 0.01 0.01 0.03 0.04 0.04 0.04 0.04 0.05 0.04 0.03 0.03 0.02 0.02 0.01 0.01 0.01 0.01 0.01 0.02 0.02 0.02 0.02 0.02 0.02 0.02 0.02 0.02 0.02 0.02 0.02 0.01 0.01 0.01 0.01
0.01 0.01 0.01 0.01 0.01 0.01 0.01 0.00 0.00 0.00 0.01 0.01 0.01 0.02 0.02 0.02 0.02 0.03 0.04 0.03 0.03 0.03 0.03 0.02 0.02 0.01 0.01 0.01 0.01 0.02 0.02 0.02 0.02 0.02 0.02 0.02 0.02 0.03 0.02 0.02 0.02 0.02 0.01 0.02
0.02 0.02 0.01 0.01 0.01 0.01 0.01 0.01 0.00 0.01 0.01 0.01 0.01 0.01 0.01 0.01 0.02 0.03 0.03 0.03 0.02 0.02 0.02 0.02 0.02 0.01 0.01 0.01 0.01 0.02 0.02 0.02 0.02 0.02 0.02 0.02 0.03 0.03 0.03 0.03 0.03 0.03 0.03 0.03
0.03 0.02 0.02 0.01 0.01 0.01 0.01 0.01 0.01 0.01 0.01 0.01 0.02 0.02 0.02 0.02 0.02 0.02 0.03 0.03 0.03 0.02 0.01 0.01 0.01 0.01 0.01 0.01 0.01 0.01 0.01 0.02 0.02 0.02 0.02 0.02 0.02 0.02 0.03 0.03 0.03 0.03 0.03 0.02
0.02 0.02 0.02 0.02 0.01 0.01 0.01 0.01 0.01 0.01 0.01 0.02 0.02 0.03 0.03 0.03 0.03 0.02 0.02 0.03 0.03 0.03 0.03 0.03 0.03 0.02 0.02 0.01 0.02 0.02 0.02 0.02 0.01 0.02 0.02 0.03 0.03 0.03 0.03 0.03 0.02 0.02 0.02 0.02
0.01 0.02 0.02 0.02 0.02 0.02 0.01 0.01 0.01 0.01 0.02 0.02 0.03 0.03 0.03 0.03 0.02 0.02 0.02 0.03 0.04 0.05 0.06 0.06 0.07 0.06 0.04 0.03 0.03 0.03 0.03 0.03 0.02 0.02 0.02 0.03 0.03 0.03 0.04 0.03 0.03 0.03 0.03 0.02
0.01 0.01 0.02 0.01 0.02 0.02 0.02 0.02 0.01 0.01 0.01 0.02 0.02 0.02 0.03 0.03 0.02 0.02 0.04 0.08 0.09 0.07 0.06 0.07 0.07 0.06 0.05 0.03 0.02 0.02 0.03 0.04 0.04 0.04 0.04 0.04 0.03 0.03 0.03 0.03 0.02 0.02 0.02 0.02
0.01 0.02 0.03 0.02 0.02 0.02 0.02 0.02 0.01 0.01 0.01 0.02 0.02 0.03 0.03 0.03 0.02 0.03 0.04 0.06 0.08 0.06 0.04 0.03 0.03 0.02 0.02 0.01 0.02 0.02 0.02 0.02 0.02 0.02 0.03 0.02 0.02 0.02 0.02 0.02 0.02 0.02 0.01 0.01
0.03 0.03 0.04 0.04 0.04 0.03 0.02 0.02 0.02 0.02 0.02 0.03 0.03 0.04 0.04 0.03 0.03 0.04 0.05 0.05 0.05 0.05 0.04 0.02 0.01 0.01 0.01 0.01 0.02 0.01 0.01 0.01 0.02 0.02 0.02 0.01 0.01 0.01 0.01 0.01 0.01 0.01 0.01 0.01
0.05 0.06 0.05 0.04 0.04 0.03 0.03 0.02 0.03 0.03 0.04 0.05 0.05 0.05 0.05 0.05 0.05 0.05 0.05 0.04 0.03 0.02 0.02 0.02 0.02 0.02 0.01 0.01 0.01 0.01 0.01 0.01 0.01 0.01 0.01 0.01 0.01 0.01 0.01 0.01 0.01 0.01 0.01 0.00
MSLP
1011.17 1011.24 1011.32 1011.39 1011.45 1011.48 1011.48 1011.40 1011.25 1011.01 1010.70 1010.34 1009.97 1009.65 1009.42 1009.29 1009.28 1009.39 1009.58 1009.82 1010.05 1010.26 1010.41 1010.51 1010.58 1010.65 1010.76 1010.95 1011.24 1011.64 1012.13 1012.67 1013.22 1013.73 1014.15 1014.44 1014.61 1014.66 1014.61 1014.50 1014.37 1014.24 1014.16 1014.12
1011.15 1011.15 1011.12 1011.06 1010.98 1010.88 1010.76 1010.63 1010.46 1010.27 1010.06 1009.85 1009.65 1009.49 1009.38 1009.34 1009.36 1009.43 1009.53 1009.64 1009.73 1009.80 1009.82 1009.83 1009.85 1009.91 1010.05 1010.31 1010.69 1011.20 1011.81 1012.48 1013.16 1013.79 1014.33 1014.73 1014.99 1015.10 1015.09 1014.99 1014.83 1014.66 1014.49 1014.37
1011.10 1011.06 1010.97 1010.82 1010.65 1010.45 1010.26 1010.08 1009.92 1009.78 1009.66 1009.56 1009.50 1009.46 1009.46 1009.47 1009.50 1009.52 1009.54 1009.52 1009.48 1009.40 1009.31 1009.23 1009.20 1009.24 1009.41 1009.71 1010.17 1010.77 1011.48 1012.25 1013.04 1013.78 1014.43 1014.94 1015.28 1015.46 1015.50 1015.41 1015.24 1015.03 1014.81 1014.62
1011.00 1010.97 1010.85 1010.67 1010.45 1010.21 1009.98 1009.77 1009.61 1009.51 1009.46 1009.45 1009.48 1009.54 1009.60 1009.65 1009.68 1009.66 1009.60 1009.49 1009.33 1009.14 1008.95 1008.79 1008.70 1008.73 1008.89 1009.22 1009.71 1010.36 1011.12 1011.96 1012.82 1013.64 1014.36 1014.95 1015.37 1015.61 1015.70 1015.64 1015.49 1015.27 1015.02 1014.79
1010.84 1010.84 1010.75 1010.58 1010.35 1010.10 1009.85 1009.64 1009.49 1009.41 1009.40 1009.46 1009.55 1009.67 1009.77 1009.85 1009.88 1009.84 1009.72 1009.54 1009.30 1009.04 1008.78 1008.56 1008.43 1008.42 1008.56 1008.88 1009.36 1010.01 1010.77 1011.62 1012.49 1013.33 1014.09 1014.72 1015.19 1015.50 1015.64 1015.63 1015.51 1015.32 1015.08 1014.85
1010.60 1010.66 1010.62 1010.49 1010.29 1010.06 1009.83 1009.63 1009.49 1009.42 1009.43 1009.52 1009.65 1009.80 1009.93 1010.03 1010.07 1010.03 1009.90 1009.69 1009.42 1009.12 1008.83 1008.58 1008.41 1008.36 1008.46 1008.72 1009.16 1009.74 1010.45 1011.25 1012.08 1012.89 1013.65 1014.29 1014.80 1015.15 1015.35 1015.41 1015.36 1015.22 1015.04 1014.85
1010.29 1010.41 1010.43 1010.37 1010.23 1010.04 1009.84 1009.66 1009.53 1009.48 1009.50 1009.59 1009.74 1009.91 1010.07 1010.19 1010.25 1010.23 1010.12 1009.93 1009.67 1009.38 1009.08 1008.81 1008.62 1008.53 1008.57 1008.77 1009.11 1009.60 1010.21 1010.90 1011.65 1012.40 1013.11 1013.75 1014.27 1014.67 1014.94 1015.08 1015.11 1015.07 1014.97 1014.86
1009.92 1010.10 1010.20 1010.21 1010.13 1010.00 1009.85 1009.71 1009.60 1009.56 1009.59 1009.68 1009.83 1010.01 1010.19 1010.33 1010.42 1010.44 1010.37 1010.23 1010.01 1009.76 1009.49 1009.23 1009.03 1008.90 1008.88 1008.99 1009.23 1009.59 1010.08 1010.65 1011.29 1011.95 1012.61 1013.22 1013.76 1014.20 1014.54 1014.77 1014.91 1014.97 1014.97 1014.96
1009.55 1009.78 1009.94 1010.02 1010.02 1009.96 1009.87 1009.77 1009.70 1009.67 1009.71 1009.80 1009.95 1010.13 1010.31 1010.48 1010.60 1010.66 1010.65 1010.57 1010.42 1010.22 1010.00 1009.77 1009.56 1009.42 1009.34 1009.36 1009.50 1009.74 1010.09 1010.54 1011.07 1011.64 1012.24 1012.83 1013.37 1013.86 1014.27 1014.60 1014.84 1015.01 1015.12 1015.21
1009.26 1009.51 1009.72 1009.86 1009.94 1009.95 1009.92 1009.87 1009.84 1009.84 1009.88 1009.98 1010.12 1010.30 1010.48 1010.66 1010.81 1010.91 1010.96 1010.93 1010.85 1010.71 1010.54 1010.35 1010.17 1010.00 1009.89 1009.85 1009.90 1010.04 1010.28 1010.62 1011.05 1011.55 1012.09 1012.66 1013.21 1013.74 1014.22 1014.63 1014.97 1015.24 1015.45 1015.61
1009.10 1009.37 1009.60 1009.79 1009.92 1009.99 1010.03 1010.04 1010.05 1010.08 1010.14 1010.24 1010.37 1010.53 1010.71 1010.89 1011.05 1011.17 1011.26 1011.29 1011.26 1011.19 1011.07 1010.93 1010.77 1010.62 1010.49 1010.41 1010.40 1010.47 1010.63 1010.88 1011.23 1011.67 1012.18 1012.73 1013.29 1013.85 1014.38 1014.86 1015.27 1015.61 1015.88 1016.10
1009.16 1009.40 1009.64 1009.85 1010.02 1010.14 1010.23 1010.30 1010.35 1010.41 1010.48 1010.58 1010.69 1010.83 1010.99 1011.15 1011.30 1011.43 1011.53 1011.60 1011.62 1011.60 1011.54 1011.45 1011.33 1011.20 1011.09 1011.00 1010.95 1010.98 1011.09 1011.29 1011.59 1011.99 1012.46 1012.99 1013.56 1014.13 1014.69 1015.20 1015.65 1016.03 1016.34 1016.57
1009.45 1009.65 1009.86 1010.06 1010.25 1010.40 1010.53 1010.63 1010.71 1010.79 1010.87 1010.95 1011.05 1011.16 1011.28 1011.40 1011.53 1011.65 1011.76 1011.85 1011.91 1011.94 1011.93 1011.89 1011.82 1011.74 1011.65 1011.57 1011.53 1011.54 1011.62 1011.79 1012.05 1012.40 1012.84 1013.34 1013.89 1014.46 1015.01 1015.53 1015.98 1016.37 1016.68 1016.90
1009.95 1010.09 1010.25 1010.43 1010.60 1010.75 1010.89 1011.00 1011.10 1011.18 1011.25 1011.31 1011.38 1011.45 1011.52 1011.61 1011.70 1011.81 1011.91 1012.02 1012.11 1012.18 1012.23 1012.25 1012.24 1012.20 1012.15 1012.10 1012.07 1012.08 1012.14 1012.28 1012.50 1012.81 1013.20 1013.66 1014.17 1014.70 1015.22 1015.72 1016.15 1016.52 1016.80 1016.99
1010.63 1010.69 1010.78 1010.90 1011.03 1011.16 1011.27 1011.38 1011.46 1011.53 1011.57 1011.60 1011.63 1011.65 1011.68 1011.72 1011.78 1011.87 1011.97 1012.09 1012.21 1012.33 1012.44 1012.52 1012.57 1012.59 1012.59 1012.57 1012.55 1012.56 1012.60 1012.70 1012.87 1013.13 1013.45 1013.85 1014.30 1014.77 1015.24 1015.68 1016.08 1016.40 1016.65 1016.82
1011.40 1011.38 1011.39 1011.44 1011.50 1011.58 1011.65 1011.72 1011.77 1011.80 1011.80 1011.79 1011.77 1011.74 1011.72 1011.73 1011.76 1011.83 1011.94 1012.07 1012.23 1012.40 1012.57 1012.71 1012.83 1012.91 1012.95 1012.95 1012.95 1012.94 1012.95 1013.00 1013.11 1013.29 1013.54 1013.85 1014.22 1014.62 1015.02 1015.41 1015.76 1016.05 1016.27 1016.42
1012.20 1012.10 1012.03 1011.99 1011.97 1011.98 1011.99 1012.01 1012.00 1011.98 1011.94 1011.88 1011.80 1011.73 1011.67 1011.65 1011.66 1011.72 1011.84 1012.00 1012.20 1012.43 1012.65 1012.86 1013.03 1013.15 1013.23 1013.25 1013.24 1013.21 1013.17 1013.17 1013.20 1013.29 1013.45 1013.67 1013.96 1014.28 1014.62 1014.95 1015.26 1015.53 1015.74 1015.89
1012.95 1012.78 1012.63 1012.52 1012.43 1012.36 1012.31 1012.26 1012.19 1012.12 1012.02 1011.91 1011.79 1011.67 1011.58 1011.53 1011.53 1011.60 1011.73 1011.92 1012.17 1012.44 1012.72 1012.98 1013.19 1013.36 1013.45 1013.48 1013.45 1013.38 1013.30 1013.22 1013.17 1013.17 1013.24 1013.38 1013.58 1013.83 1014.12 1014.42 1014.71 1014.97 1015.19 1015.36
1013.61 1013.39 1013.18 1013.01 1012.85 1012.72 1012.61 1012.50 1012.38 1012.25 1012.11 1011.95 1011.79 1011.64 1011.52 1011.45 1011.45 1011.52 1011.67 1011.89 1012.17 1012.48 1012.80 1013.10 1013.35 1013.53 1013.64 1013.66 1013.60 1013.50 1013.36 1013.21 1013.09 1013.02 1013.01 1013.07 1013.21 1013.42 1013.67 1013.95 1014.24 1014.51 1014.76 1014.97
1014.15 1013.90 1013.67 1013.45 1013.26 1013.09 1012.93 1012.78 1012.63 1012.46 1012.27 1012.08 1011.89 1011.71 1011.57 1011.49 1011.49 1011.56 1011.72 1011.96 1012.26 1012.60 1012.94 1013.26 1013.53 1013.72 1013.82 1013.83 1013.75 1013.60 1013.42 1013.22 1013.04 1012.91 1012.85 1012.87 1012.97 1013.14 1013.38 1013.66 1013.97 1014.27 1014.55 1014.81
1014.57 1014.32 1014.07 1013.85 1013.64 1013.46 1013.29 1013.12 1012.95 1012.76 1012.55 1012.34 1012.13 1011.94 1011.79 1011.70 1011.69 1011.76 1011.92 1012.16 1012.47 1012.81 1013.16 1013.49 1013.75 1013.94 1014.03 1014.03 1013.93 1013.76 1013.54 1013.31 1013.10 1012.94 1012.84 1012.84 1012.93 1013.10 1013.35 1013.64 1013.97 1014.30 1014.62 1014.92
1014.86 1014.63 1014.40 1014.19 1014.00 1013.83 1013.67 1013.51 1013.34 1013.15 1012.95 1012.74 1012.52 1012.33 1012.17 1012.07 1012.05 1012.11 1012.26 1012.50 1012.79 1013.12 1013.46 1013.77 1014.03 1014.21 1014.29 1014.27 1014.16 1013.98 1013.76 1013.52 1013.31 1013.14 1013.05 1013.05 1013.14 1013.33 1013.59 1013.90 1014.25 1014.61 1014.95 1015.27
1015.04 1014.83 1014.63 1014.45 1014.30 1014.16 1014.03 1013.90 1013.76 1013.60 1013.42 1013.22 1013.01 1012.83 1012.67 1012.57 1012.54 1012.58 1012.72 1012.93 1013.20 1013.50 1013.82 1014.11 1014.35 1014.51 1014.59 1014.57 1014.47 1014.30 1014.09 1013.87 1013.68 1013.53 1013.46 1013.49 1013.60 1013.80 1014.08 1014.40 1014.77 1015.13 1015.49 1015.82
1015.10 1014.92 1014.75 1014.62 1014.51 1014.42 1014.33 1014.25 1014.14 1014.02 1013.87 1013.70 1013.52 1013.35 1013.21 1013.11 1013.07 1013.10 1013.21 1013.40 1013.64 1013.91 1014.20 1014.46 1014.69 1014.84 1014.92 1014.91 1014.83 1014.69 1014.52 1014.34 1014.18 1014.08 1014.05 1014.10 1014.24 1014.46 1014.75 1015.08 1015.44 1015.80 1016.15 1016.46
1015.06 1014.90 1014.77 1014.67 1014.60 1014.56 1014.52 1014.48 1014.43 1014.35 1014.25 1014.12 1013.97 1013.82 1013.69 1013.60 1013.56 1013.59 1013.68 1013.84 1014.05 1014.30 1014.56 1014.80 1015.01 1015.16 1015.25 1015.26 1015.22 1015.12 1015.00 1014.87 1014.77 1014.72 1014.73 1014.82 1014.98 1015.22 1015.51 1015.84 1016.19 1016.53 1016.85 1017.13
1014.94 1014.79 1014.68 1014.61 1014.58 1014.57 1014.58 1014.58 1014.57 1014.54 1014.48 1014.39 1014.28 1014.17 1014.07 1013.99 1013.96 1013.98 1014.06 1014.20 1014.39 1014.62 1014.85 1015.08 1015.28 1015.44 1015.55 1015.59 1015.59 1015.54 1015.48 1015.42 1015.38 1015.38 1015.43 1015.55 1015.74 1015.98 1016.27 1016.59 1016.91 1017.22 1017.51 1017.75
1014.76 1014.61 1014.51 1014.46 1014.45 1014.47 1014.51 1014.55 1014.58 1014.59 1014.57 1014.52 1014.45 1014.37 1014.30 1014.24 1014.23 1014.25 1014.33 1014.46 1014.64 1014.85 1015.07 1015.29 1015.49 1015.66 1015.79 1015.87 1015.91 1015.92 1015.91 1015.91 1015.92 1015.98 1016.07 1016.23 1016.43 1016.68 1016.96 1017.25 1017.55 1017.83 1018.08 1018.28
Thickness
5784 5796 5798 5795 5796 5799 5797 5802 5799 5806 5810 5821 5830 5832 5833 5834 5834 5833 5832 5831 5830 5827 5824 5820 5816 5813 5810 5806 5801 5796 5790 5784 5779 5775 5771 5767 5763 5759 5756 5753 5750 5747 5744 5741
5766 5781 5785 5785 5794 5797 5797 5802 5804 5807 5811 5829 5832 5832 5828 5828 5827 5827 5828 5828 5828 5826 5823 5818 5815 5811 5807 5803 5799 5794 5788 5783 5779 5775 5770 5766 5762 5758 5754 5750 5747 5744 5741 5739
5753 5769 5768 5765 5787 5792 5795 5802 5802 5798 5809 5821 5819 5818 5820 5822 5823 5823 5825 5826 5825 5824 5821 5818 5815 5811 5805 5802 5797 5792 5786 5781 5777 5772 5768 5763 5760 5756 5751 5747 5744 5740 5737 5735
5748 5747 5732 5774 5799 5799 5794 5797 5804 5806 5810 5814 5813 5816 5818 5820 5819 5819 5821 5822 5822 5822 5819 5817 5815 5810 5805 5800 5794 5788 5783 5779 5774 5769 5764 5759 5754 5749 5746 5743 5739 5736 5733 5730
5738 5735 5746 5767 5780 5787 5782 5782 5798 5798 5801 5806 5810 5809 5810 5812 5813 5813 5815 5817 5818 5819 5818 5814 5811 5807 5801 5795 5790 5784 5779 5774 5770 5765 5760 5756 5750 5745 5741 5738 5734 5731 5728 5725
5728 5727 5733 5759 5774 5783 5778 5765 5788 5792 5792 5796 5799 5794 5798 5801 5803 5805 5807 5809 5809 5811 5810 5805 5803 5801 5795 5789 5784 5778 5774 5769 5765 5760 5755 5751 5746 5741 5736 5732 5729 5726 5723 5719
5720 5724 5744 5755 5765 5768 5751 5758 5777 5783 5785 5788 5787 5788 5789 5792 5793 5794 5796 5798 5800 5799 5798 5795 5794 5790 5785 5780 5775 5773 5769 5763 5757 5753 5748 5744 5740 5735 5731 5727 5723 5720 5716 5712
5716 5717 5727 5741 5751 5750 5750 5761 5768 5772 5776 5777 5777 5779 5780 5781 5782 5783 5784 5786 5787 5786 5784 5784 5783 5778 5772 5768 5766 5764 5759 5754 5749 5745 5741 5736 5731 5727 5723 5719 5715 5712 5708 5705
5711 5714 5719 5730 5735 5740 5746 5749 5755 5760 5765 5766 5766 5767 5768 5769 5770 5771 5772 5773 5774 5773 5770 5769 5770 5768 5761 5759 5758 5754 5749 5743 5738 5735 5731 5726 5722 5718 5715 5711 5709 5706 5703 5699
5694 5701 5709 5717 5723 5729 5735 5739 5745 5750 5754 5756 5755 5756 5755 5756 5756 5757 5759 5760 5761 5760 5757 5755 5756 5756 5753 5750 5748 5745 5739 5733 5729 5724 5720 5716 5713 5710 5707 5704 5700 5697 5693 5691
5680 5689 5697 5702 5709 5715 5722 5729 5733 5737 5740 5742 5743 5742 5742 5742 5742 5743 5744 5746 5747 5745 5743 5741 5742 5741 5740 5739 5737 5733 5728 5723 5719 5715 5711 5705 5701 5696 5694 5690 5688 5686 5684 5682
5672 5678 5684 5687 5696 5704 5708 5713 5718 5721 5724 5728 5730 5729 5730 5729 5730 5730 5730 5731 5731 5731 5729 5728 5728 5726 5726 5725 5724 5721 5717 5712 5709 5705 5700 5696 5691 5684 5677 5675 5670 5668 5666 5665
5663 5670 5675 5679 5686 5692 5696 5700 5705 5708 5710 5712 5715 5717 5717 5716 5717 5717 5717 5716 5716 5715 5714 5714 5713 5711 5711 5711 5710 5708 5705 5702 5700 5697 5692 5688 5684 5680 5674 5665 5659 5656 5653 5651
5653 5657 5660 5667 5672 5679 5683 5689 5693 5696 5698 5700 5702 5703 5704 5703 5704 5703 5702 5703 5702 5701 5700 5699 5699 5697 5697 5697 5696 5694 5693 5689 5688 5686 5683 5680 5676 5673 5669 5664 5659 5653 5645 5641
5642 5648 5652 5658 5662 5666 5671 5675 5678 5681 5683 5686 5689 5690 5690 5690 5690 5690 5690 5690 5689 5688 5687 5686 5685 5683 5684 5684 5683 5681 5681 5679 5676 5674 5672 5668 5665 5662 5658 5654 5651 5647 5642 5635
5632 5638 5643 5647 5650 5653 5657 5661 5664 5667 5671 5673 5675 5677 5678 5678 5678 5677 5677 5676 5675 5675 5674 5673 5672 5672 5672 5671 5670 5670 5668 5663 5662 5661 5659 5656 5653 5650 5647 5644 5641 5637 5634 5630
5621 5625 5630 5633 5638 5641 5646 5650 5653 5656 5658 5661 5663 5665 5666 5666 5665 5664 5664 5664 5663 5663 5662 5661 5660 5660 5659 5659 5659 5659 5656 5652 5646 5647 5646 5643 5641 5639 5636 5633 5630 5626 5623 5617
5615 5619 5622 5625 5628 5631 5635 5639 5642 5645 5647 5650 5653 5654 5654 5654 5654 5653 5652 5653 5651 5650 5650 5649 5648 5647 5646 5646 5646 5646 5644 5642 5639 5636 5633 5631 5629 5626 5623 5619 5616 5612 5609 5604
5608 5611 5614 5617 5620 5623 5625 5628 5632 5636 5637 5639 5640 5642 5643 5644 5643 5642 5641 5641 5639 5638 5637 5637 5632 5635 5634 5633 5632 5632 5633 5631 5627 5624 5621 5615 5616 5614 5611 5607 5604 5600 5597 5593
5600 5603 5606 5609 5613 5615 5617 5621 5623 5625 5627 5629 5630 5631 5632 5632 5632 5631 5630 5629 5629 5628 5626 5624 5624 5624 5623 5622 5620 5622 5621 5619 5616 5612 5609 5607 5604 5601 5599 5596 5592 5588 5584 5581
5592 5595 5598 5602 5605 5608 5611 5613 5615 5616 5618 5620 5620 5621 5621 5622 5622 5621 5619 5618 5616 5614 5614 5611 5613 5613 5612 5610 5608 5612 5610 5607 5604 5600 5597 5594 5592 5589 5586 5583 5579 5576 5573 5570
5586 5588 5591 5594 5597 5600 5603 5605 5607 5609 5610 5611 5612 5612 5612 5611 5611 5610 5609 5608 5605 5601 5603 5603 5602 5599 5599 5598 5601 5600 5597 5595 5592 5589 5585 5582 5579 5576 5573 5569 5566 5563 5560 5557
5579 5581 5584 5587 5590 5592 5594 5596 5599 5600 5601 5602 5602 5602 5603 5602 5602 5601 5598 5596 5595 5591 5592 5591 5587 5585 5585 5588 5589 5587 5585 5582 5580 5576 5573 5570 5567 5564 5560 5557 5554 5550 5547 5544
5574 5576 5578 5581 5584 5585 5585 5588 5590 5591 5592 5592 5594 5594 5594 5593 5592 5592 5590 5583 5582 5580 5581 5576 5574 5573 5573 5577 5575 5574 5572 5569 5567 5564 5560 5557 5554 5552 5549 5545 5542 5539 5535 5532
5569 5571 5573 5574 5576 5578 5578 5580 5581 5582 5583 5584 5584 5584 5584 5584 5583 5581 5578 5575 5570 5570 5569 5565 5562 5561 5564 5565 5563 5562 5559 5556 5554 5551 5548 5545 5542 5539 5536 5533 5530 5528 5525 5521
5564 5565 5567 5568 5569 5570 5572 5574 5574 5574 5575 5575 5574 5574 5574 5573 5572 5570 5568 5565 5563 5560 5560 5558 5556 5554 5555 5554 5552 5550 5547 5544 5542 5539 5535 5533 5530 5526 5523 5521 5518 5516 5513 5509
5560 5561 5562 5563 5564 5565 5566 5568 5568 5568 5568 5567 5566 5565 5565 5564 5563 5562 5560 5558 5556 5555 5553 5551 5549 5547 5546 5544 5542 5539 5536 5533 5530 5527 5524 5521 5517 5515 5512 5509 5507 5504 5500 5497